Change the Weather History Date:

Thursday, February 2, 2012

  Actual Average Record
Temperature  
Mean Temperature 60 °F 59 °F  
Max Temperature 75 °F 71 °F 91 °F (1995)
Min Temperature 44 °F 47 °F 30 °F (1939)
Degree Days  
Heating Degree Days 5 7  
Month to date heating degree days 9 14  
Since 1 July heating degree days 561 641  
Cooling Degree Days 0 1  
Month to date cooling degree days 0 1  
Year to date cooling degree days 12 9  
Growing Degree Days 10 (Base 50)    
Moisture  
Dew Point 20 °F    
Average Humidity 35    
Maximum Humidity 60    
Minimum Humidity 9    
Precipitation  
Precipitation 0.00 in 0.01 in 0.83 in (1983)
Month to date precipitation 0.00 0.03  
Year to date precipitation 0.03 1.03  
Since 1 July precipitation 1.51  
Snow  
Snow 0.00 in - - ()
Month to date snowfall 0.0  
Year to date snowfall 0.0  
Since 1 July snowfall 0.0  
Snow Depth 0.00 in    
Sea Level Pressure  
Sea Level Pressure 29.98 in    
Wind  
Wind Speed 5 mph (NNW)    
Max Wind Speed 17 mph    
Max Gust Speed 21 mph    
Visibility 10 miles    
Events      
T = Trace of Precipitation, MM = Missing Value Source: NWS Daily Summary

Daily Weather History Graph

Daily Weather History Graph

Search for Another Location

Airport or City:

Trip Planner

Search our weather history database for the weather conditions in past years. The results will help you decide how hot, cold, wet, or windy it might be!

Date:

Astronomy

Feb. 02, 2012 Rise Set
Actual Time 6:42 AM PST 5:17 PM PST
Civil Twilight 6:16 AM PST 5:43 PM PST
Nautical Twilight 5:46 AM PST 6:13 PM PST
Astronomical Twilight 5:16 AM PST 6:42 PM PST
Moon 12:38 PM PST (2/2) 2:23 AM PST (2/2)
Length of Visible Light 11h 27m
Length of Day
10h 35m
Waxing Gibbous, 74% of the Moon is Illuminated
Feb 2
Waxing Gibbous
Feb 7
Full
Feb 14
Last Quarter
Feb 21
New
Feb 29
First Quarter

Hourly Weather History & Observations

Time (PST) Temp. Dew Point Humidity Pressure Visibility Wind Dir Wind Speed Gust Speed Precip Events Conditions
12:53 AM 54.0 °F 28.9 °F 38% 30.01 in 10.0 mi Calm Calm - N/A   Clear
1:53 AM 53.1 °F 28.9 °F 40% 30.00 in 10.0 mi WSW 4.6 mph - N/A   Clear
2:53 AM 55.0 °F 32.0 °F 42% 30.00 in 10.0 mi Calm Calm - N/A   Clear
3:53 AM 48.9 °F 28.9 °F 46% 30.01 in 10.0 mi Calm Calm - N/A   Clear
4:53 AM 51.1 °F 30.9 °F 46% 30.01 in 10.0 mi North 4.6 mph - N/A   Clear
5:53 AM 46.9 °F 34.0 °F 61% 30.01 in 10.0 mi Calm Calm - N/A   Clear
6:53 AM 51.1 °F 36.0 °F 56% 30.01 in 10.0 mi NW 9.2 mph - N/A   Clear
7:53 AM 54.0 °F 33.1 °F 45% 30.02 in 10.0 mi NNW 9.2 mph - N/A   Clear
8:53 AM 59.0 °F 34.0 °F 39% 30.02 in 10.0 mi Calm Calm - N/A   Clear
9:53 AM 64.9 °F 32.0 °F 29% 30.01 in 10.0 mi South 3.5 mph - N/A   Clear
10:53 AM 71.1 °F 19.9 °F 14% 29.99 in 10.0 mi Calm Calm - N/A   Clear
11:53 AM 71.1 °F 19.0 °F 14% 29.96 in 10.0 mi SSW 3.5 mph - N/A   Clear
12:53 PM 73.9 °F 15.1 °F 11% 29.94 in 10.0 mi North 13.8 mph 20.7 mph N/A   Clear
1:53 PM 73.9 °F 14.0 °F 10% 29.92 in 10.0 mi NNE 10.4 mph - N/A   Clear
2:53 PM 73.9 °F 12.9 °F 10% 29.91 in 10.0 mi North 10.4 mph - N/A   Clear
3:53 PM 73.0 °F 12.0 °F 10% 29.92 in 10.0 mi NNW 10.4 mph - N/A   Clear
4:53 PM 68.0 °F 9.0 °F 10% 29.93 in 10.0 mi NE 4.6 mph - N/A   Clear
5:53 PM 66.0 °F 5.0 °F 9% 29.94 in 10.0 mi NNE 12.7 mph 19.6 mph N/A   Clear
6:53 PM 66.0 °F 6.1 °F 9% 29.97 in 10.0 mi North 10.4 mph - N/A   Clear
7:53 PM 64.0 °F 8.1 °F 11% 30.00 in 10.0 mi NW 9.2 mph - N/A   Clear
8:53 PM 62.1 °F 8.1 °F 12% 30.01 in 10.0 mi North 3.5 mph 21.9 mph N/A   Clear
9:53 PM 59.0 °F 10.0 °F 14% 30.01 in 10.0 mi West 5.8 mph - N/A   Clear
10:53 PM 57.0 °F 10.9 °F 16% 30.02 in 10.0 mi Calm Calm - N/A   Clear
11:53 PM 54.0 °F 12.9 °F 20% 30.02 in 10.0 mi Calm Calm - N/A   Clear